ZHONGXING-9

Last updated on Thu Oct 30 2025 00:02:48 GMT+0000 (Coordinated Universal Time)

1 33051U 08028A 25301.94906248 -.00000239 00000+0 00000+0 0 9996 2 33051 0.1746 89.3807 0007211 149.9299 232.3254 1.00272964 63721
UTC large
Height (km)
Speed (km/s)
/
Latitude / Longitude
Inclination (degrees)
Orbital Period (minutes)
Azimuth
Elevation
Range (km)
Doppler Factor

Next 0 passes for location: London (51.5072 / 0.1276)

Sorry there are no passes over London.